Flag for Russia Weather past 2 weeks in Syktyvkar, Russia

Now
43 °F

Passing clouds.


Feels Like: 39 °F
Forecast: 34 / 50 °F
Wind: 6 mph from Northwest

Location: Syktyvkar Airport


UV Index: 0 (Low)

Visibility: N/A


Pressure: 30.45 "Hg

Humidity: 31%

Dew point: 14 °F

Location of SyktyvkarLocation

Historic Weather in Syktyvkar

°F

Syktyvkar temperature yesterday

Maximum temperature yesterday: 52 °F (at 11:00 AM)
Minimum temperature yesterday: 37 °F (at 2:30 AM)
Average temperature yesterday: 46 °F

Past Weeks' High & Low Weather Summary

 TemperatureHumidityPressure
High52 °F (Apr 19, 2:30 PM)100% (Apr 15, 11:30 PM)30.45 "Hg (Apr 15, 11:30 PM)
Low9 °F (Apr 11, 3:30 AM)22% (Apr 11, 1:00 PM)29.45 "Hg (Apr 7, 2:00 AM)
Average36 °F60%29.92 "Hg
* Reported Apr 6 4:00 PM — Apr 21 4:30 PM, Syktyvkar, Weather by CustomWeather, © 2014

Note: Actual official high and low records may vary slightly from our data, if they occured in-between our weather recording intervals... More about our weather records

Advertising

Historic Weather Conditions — Data for Previous 24 hours

 ConditionsComfort  
Time TempWeatherWind HumidityBarometerVisibility
4:30 PM
Apr 21
43 °FPassing clouds.8 mph31%30.45 "HgN/A
4:00 PM43 °FPassing clouds.10 mph29%30.45 "HgN/A
3:30 PM43 °FScattered clouds.6 mph31%30.45 "HgN/A
3:00 PM43 °FScattered clouds.6 mph31%30.45 "HgN/A
2:30 PM41 °FScattered clouds.10 mph31%30.45 "HgN/A
2:00 PM43 °FScattered clouds.10 mph29%30.45 "HgN/A
1:30 PM41 °FScattered clouds.10 mph33%30.45 "HgN/A
1:00 PM41 °FScattered clouds.8 mph39%30.42 "HgN/A
12:30 PM41 °FPartly sunny.10 mph36%30.42 "HgN/A
12:00 PM39 °FScattered clouds.8 mph42%30.42 "HgN/A
11:30 AM39 °FPartly sunny.8 mph42%30.42 "HgN/A
11:00 AM37 °FPartly sunny.10 mph45%30.42 "HgN/A
10:30 AM37 °FPartly sunny.10 mph41%30.39 "HgN/A
10:00 AM37 °FScattered clouds.10 mph41%30.39 "HgN/A
9:30 AM37 °FScattered clouds.13 mph45%30.36 "Hg3 mi
9:00 AM36 °FPartly sunny.10 mph48%30.36 "Hg3 mi
8:30 AM36 °FScattered clouds.8 mph56%30.36 "Hg3 mi
8:00 AM34 °FScattered clouds.8 mph60%30.33 "Hg3 mi
7:30 AM34 °FScattered clouds.6 mph56%30.33 "Hg2 mi
7:00 AM32 °FPassing clouds.6 mph60%30.30 "Hg2 mi
6:30 AM32 °FPassing clouds.8 mph60%30.30 "Hg2 mi
6:00 AM32 °FScattered clouds.6 mph60%30.27 "Hg2 mi
5:30 AM32 °FPassing clouds.6 mph60%30.27 "Hg2 mi
5:00 AM32 °FPassing clouds.6 mph64%30.24 "Hg2 mi
4:30 AM32 °FPassing clouds.6 mph64%30.24 "Hg2 mi
4:00 AM32 °FPassing clouds.8 mph64%30.21 "Hg2 mi
3:30 AM32 °FPassing clouds.8 mph64%30.21 "Hg2 mi
3:00 AM34 °FPassing clouds.6 mph60%30.21 "Hg2 mi
2:30 AM34 °FPassing clouds.8 mph60%30.18 "Hg2 mi
2:00 AM34 °FPassing clouds.6 mph60%30.18 "Hg2 mi
1:00 AM37 °FPartly cloudy.10 mph56%30.15 "Hg2 mi
12:30 AM39 °FPartly cloudy.10 mph52%30.12 "Hg6 mi
12:00 AM39 °FClear.3 mph48%30.09 "Hg10 mi
11:30 PM
Apr 20
41 °FClear.6 mph45%30.09 "Hg10 mi
11:00 PM41 °FClear.3 mph49%30.07 "Hg10 mi
10:30 PM43 °FPassing clouds.6 mph42%30.07 "HgN/A
10:00 PM43 °FClear.6 mph42%30.07 "Hg10 mi
9:30 PM45 °FClear.6 mph39%30.04 "Hg10 mi
9:00 PM45 °FPassing clouds.3 mph42%30.04 "HgN/A
8:30 PM45 °FPartly sunny.8 mph46%30.01 "HgN/A
8:00 PM46 °FPartly sunny.6 mph46%30.01 "HgN/A
7:30 PM46 °FBroken clouds.3 mph50%29.98 "HgN/A
7:00 PM46 °FBroken clouds.8 mph53%29.98 "HgN/A
6:30 PM50 °FPartly sunny.6 mph50%29.95 "HgN/A
6:00 PM50 °FPartly sunny.8 mph50%29.95 "HgN/A
5:30 PM50 °FPartly sunny.10 mph50%29.92 "HgN/A
5:00 PM50 °FSprinkles. Mostly cloudy.10 mph50%29.92 "HgN/A
Weather by CustomWeather, © 2014

See weather overview